TimeEDT,TemperatureF,Dew PointF,Humidity,Sea Level PressureIn,VisibilityMPH,Wind Direction,Wind SpeedMPH,Gust SpeedMPH,PrecipitationIn,Events,Conditions,WindDirDegrees,DateUTC
12:53 AM,66.0,64.0,93,29.68,10.0,South,16.1,25.3,0.00,,Overcast,180,2013-07-11 04:53:00
1:10 AM,64.4,64.4,100,29.69,9.0,South,15.0,29.9,N/A,,Overcast,180,2013-07-11 05:10:00
1:53 AM,64.9,64.0,97,29.68,10.0,South,13.8,20.7,N/A,,Overcast,190,2013-07-11 05:53:00
2:53 AM,66.0,64.0,93,29.66,10.0,SSW,8.1,-,N/A,,Overcast,210,2013-07-11 06:53:00
3:53 AM,66.0,64.0,93,29.65,10.0,South,9.2,-,N/A,,Overcast,180,2013-07-11 07:53:00
4:53 AM,64.9,64.0,97,29.67,10.0,South,6.9,-,N/A,,Overcast,170,2013-07-11 08:53:00
5:32 AM,64.4,64.4,100,29.69,10.0,SSE,5.8,-,N/A,,Overcast,160,2013-07-11 09:32:00
5:43 AM,64.4,64.4,100,29.69,9.0,SSE,4.6,-,N/A,,Overcast,150,2013-07-11 09:43:00
5:53 AM,64.9,64.0,97,29.68,10.0,South,8.1,-,N/A,,Overcast,180,2013-07-11 09:53:00
6:44 AM,66.2,64.4,94,29.70,10.0,South,9.2,-,N/A,,Mostly Cloudy,170,2013-07-11 10:44:00
6:53 AM,66.0,64.0,93,29.69,10.0,South,8.1,-,N/A,,Mostly Cloudy,170,2013-07-11 10:53:00
7:00 AM,66.2,64.4,94,29.71,10.0,South,8.1,-,N/A,,Scattered Clouds,170,2013-07-11 11:00:00
7:53 AM,68.0,64.0,87,29.70,10.0,South,9.2,-,N/A,,Mostly Cloudy,170,2013-07-11 11:53:00
8:53 AM,71.1,63.0,75,29.70,10.0,WSW,10.4,-,N/A,,Mostly Cloudy,240,2013-07-11 12:53:00
9:53 AM,72.0,62.1,71,29.72,10.0,West,16.1,20.7,N/A,,Overcast,270,2013-07-11 13:53:00
10:01 AM,73.4,62.6,69,29.73,10.0,West,15.0,20.7,N/A,,Mostly Cloudy,270,2013-07-11 14:01:00
10:53 AM,73.0,60.1,64,29.73,10.0,WSW,13.8,-,N/A,,Overcast,240,2013-07-11 14:53:00
11:53 AM,73.0,61.0,66,29.74,10.0,West,12.7,-,N/A,,Mostly Cloudy,260,2013-07-11 15:53:00
12:53 PM,71.1,59.0,66,29.76,10.0,NNW,13.8,19.6,N/A,,Overcast,330,2013-07-11 16:53:00
1:53 PM,72.0,57.0,59,29.78,10.0,NW,16.1,23.0,N/A,,Partly Cloudy,320,2013-07-11 17:53:00
2:53 PM,73.0,55.0,53,29.80,10.0,NNW,10.4,18.4,N/A,,Partly Cloudy,340,2013-07-11 18:53:00
3:53 PM,73.0,54.0,51,29.81,10.0,NNW,15.0,25.3,N/A,,Clear,340,2013-07-11 19:53:00
4:53 PM,70.0,52.0,53,29.84,10.0,NNW,18.4,24.2,N/A,,Partly Cloudy,340,2013-07-11 20:53:00
5:53 PM,70.0,51.1,51,29.86,10.0,North,13.8,19.6,N/A,,Clear,350,2013-07-11 21:53:00
6:53 PM,68.0,51.1,55,29.88,10.0,NNW,15.0,23.0,N/A,,Partly Cloudy,330,2013-07-11 22:53:00
7:53 PM,64.0,51.1,63,29.91,10.0,NNW,16.1,21.9,N/A,,Clear,330,2013-07-11 23:53:00
8:53 PM,60.1,50.0,69,29.93,10.0,NW,11.5,-,N/A,,Clear,320,2013-07-12 00:53:00
9:53 PM,57.9,48.9,72,29.96,10.0,NNW,8.1,-,N/A,,Clear,330,2013-07-12 01:53:00
10:53 PM,55.0,48.9,80,29.99,10.0,NNW,8.1,-,N/A,,Clear,330,2013-07-12 02:53:00
11:53 PM,52.0,48.0,86,30.01,10.0,NNW,5.8,-,N/A,,Clear,330,2013-07-12 03:53:00